Location: Ellerstadt
(49.4644°N, 8.2615°E)
Time: 19:28:31
(UTC+00:00)

Vanguard 1 - Pass Details

Date: 16 June 2021
Orbit: 651 x 3832 km, 34.2° (Epoch: 27 July)

Event Time Altitude Azimuth Distance (km) Brightness Sun altitude
Rises 03:41:11 0° 271° (W) 5,900 13.5 1.9°
Reaches altitude 10° 03:48:22 10° 248° (WSW) 4,064 12.6 2.9°
Maximum altitude 03:52:14 13° 226° (SW) 3,383 12.2 3.4°
Drops below altitude 10° 03:55:26 10° 202° (SSW) 3,212 12.2 3.9°
Sets 03:59:40 0° 173° (S) 3,685 12.8 4.5°
